This is the latest recevied weather packets stored in our database for station/object NR0A-4. If no packets are shown the sender has not sent any weather packets the latest 10 day(s).
| Time | Temp. | Humidity | Pressure | Rain* | Wind** | Luminosity | Snow |
|---|---|---|---|---|---|---|---|
| 1778195405 | 21.67° C | 19% | 1008.6 hPa | 0 mm | - | 364 W/m² | - |
| 1778195105 | 21.67° C | 19% | 1008.6 hPa | 0 mm | - | 380 W/m² | - |
| 1778194805 | 21.11° C | 21% | 1008.5 hPa | 0 mm | - | 397 W/m² | - |
| 1778194505 | 21.67° C | 21% | 1008.5 hPa | 0 mm | - | 417 W/m² | - |
| 1778194204 | 21.67° C | 20% | 1008.5 hPa | 0 mm | - | 432 W/m² | - |
| 1778193905 | 21.11° C | 20% | 1008.5 hPa | 0 mm | - | 459 W/m² | - |
| 1778193604 | 21.11° C | 20% | 1008.5 hPa | 0 mm | - | 476 W/m² | - |
| 1778193305 | 21.11° C | 22% | 1008.5 hPa | 0 mm | - | 534 W/m² | - |
| 1778193004 | 21.11° C | 22% | 1008.6 hPa | 0 mm | - | 165 W/m² | - |
| 1778192705 | 21.11° C | 22% | 1008.5 hPa | 0 mm | - | 165 W/m² | - |
| 1778192405 | 21.67° C | 22% | 1008.5 hPa | 0 mm | - | 455 W/m² | - |
| 1778192104 | 21.67° C | 21% | 1008.6 hPa | 0 mm | - | 541 W/m² | - |
| 1778191805 | 21.11° C | 22% | 1008.5 hPa | 0 mm | - | 552 W/m² | - |
| 1778191504 | 21.11° C | 20% | 1008.5 hPa | 0 mm | - | 564 W/m² | - |
| 1778191205 | 21.67° C | 20% | 1008.5 hPa | 0 mm | - | 577 W/m² | - |
| 1778190904 | 21.67° C | 20% | 1008.5 hPa | 0 mm | - | 589 W/m² | - |
| 1778190605 | 21.67° C | 23% | 1008.6 hPa | 0 mm | - | 601 W/m² | - |
| 1778190304 | 21.67° C | 20% | 1008.6 hPa | 0 mm | - | 615 W/m² | - |
| 1778190005 | 21.11° C | 20% | 1008.6 hPa | 0 mm | - | 633 W/m² | - |
| 1778189704 | 21.11° C | 21% | 1008.7 hPa | 0 mm | - | 643 W/m² | - |
| 1778189405 | 21.11° C | 23% | 1008.7 hPa | 0 mm | - | 656 W/m² | - |
| 1778189105 | 21.67° C | 21% | 1008.8 hPa | 0 mm | - | 666 W/m² | - |
| 1778188804 | 21.67° C | 23% | 1008.8 hPa | 0 mm | - | 673 W/m² | - |
| 1778188504 | 21.67° C | 21% | 1008.9 hPa | 0 mm | - | 687 W/m² | - |
| 1778188205 | 21.67° C | 22% | 1008.9 hPa | 0 mm | - | 698 W/m² | - |
* Rain latest hour (hover to see other rain measurements)
** Current wind speed in m/s (hover to see current wind gust speed)